Location: Kitchener
(43.2612°N, 80.5078°W)
Time: 19:51:15
(UTC+01:00)

ISS - Visible Passes

Search period start: 19 January 2021 00:00
Search period end: 29 January 2021 00:00
Orbit: 418 x 419 km, 51.6° (Epoch: 20 January)

Date Brightness Start Highest point End Pass type
(mag) Time Alt. Az. Time Alt. Az. Time Alt. Az.
19 Jan -2.9 00:51:49 10° SSW 00:54:53 34° SE 00:54:54 34° SE visible
20 Jan -2.1 00:04:43 10° S 00:07:18 21° SE 00:09:26 13° E visible
20 Jan -1.7 01:40:33 10° WSW 01:42:24 29° W 01:42:24 29° W visible
21 Jan -3.8 00:52:45 10° WSW 00:56:07 86° NNW 00:56:51 52° NE visible
22 Jan -3.5 00:05:06 10° SW 00:08:24 57° SE 00:11:13 14° ENE visible
22 Jan -1.5 01:42:21 10° W 01:44:10 23° NW 01:44:10 23° NW visible
23 Jan -2.8 00:54:18 10° W 00:57:30 39° NNW 00:58:29 30° NNE visible
24 Jan -3.3 00:06:20 10° WSW 00:09:39 56° NNW 00:12:44 12° NE visible
24 Jan -1.2 01:44:18 10° WNW 01:45:41 17° NW 01:45:41 17° NW visible
25 Jan -2.1 00:56:11 10° WNW 00:59:00 24° NNW 00:59:54 21° N visible
26 Jan -2.3 00:08:03 10° W 00:11:04 29° NNW 00:14:04 10° NE visible
26 Jan -1.0 01:46:04 10° NW 01:47:01 15° NNW 01:47:01 15° NNW visible
27 Jan -1.9 00:58:03 10° NW 01:00:35 19° N 01:01:11 19° N visible
28 Jan -1.9 00:09:55 10° WNW 00:12:34 21° N 00:15:14 10° NE visible
28 Jan -1.0 01:47:27 10° NW 01:48:17 15° NNW 01:48:17 15° NNW visible
